User: anonymous   Login
Location: Unspecified
(0.0000°N, 0.0000°E)
Time: 00:15:04
(UTC+00:00)
Language:

Tansei-1 - Orbit

View from above orbital plane
View from above orbital plane
View from above satellite
View from above satellite

Ground track
Ground track

The orbit data is extracted from the following two-line orbital elements,

1  4952U 71011A   17326.50908125 +.00000059 +00000-0 -76569-5 0  9992
2  4952 029.6654 135.3155 0079785 012.0610 024.3755 13.58472307322781
Epoch (UTC): 22 November 2017 12:13:04
Eccentricity: 0.0079785
inclination: 29.6654°
perigee height: 982 km
apogee height: 1100 km
right ascension of ascending node: 135.3155°
argument of perigee: 12.0610°
revolutions per day: 13.58472307
mean anomaly at epoch: 24.3755°
orbit number at epoch: 32278

The dashed part of the orbit path shows where the satellite is in the earth's shadow,  

DLR